Regional Weather Roundup
Issued by NWS

Home | Current Version | Previous Version | Text Only | Print | Product List | Glossary On
Versions: 1 2 3 4 5 6 7 8 9 10 11 12 13 14 15 16 17 18 19 20 21 22 23 24 25 26 27 28 29 30 31 32 33 34 35 36 37 38 39 40 41 42 43 44 45 46 47 48 49 50
111
ASUS45 KABQ 131510
RWRNM
NEW MEXICO REGIONAL WEATHER ROUNDUP
NATIONAL WEATHER SERVICE ALBUQUERQUE NM
800 AM MST SAT FEB 13 2016

NOTE: "FAIR" MEANS FEW OR NO CLOUDS BELOW 12,000 FEET AGL WITH NO
       SIGNIFICANT WEATHER OR OBSTRUCTIONS TO VISION.

      THIS PRODUCT IS RELEASED AS TWO VERSIONS.  ONE VERSION NEAR
      THE TOP OF THE HOUR CONTAINING PRELIMINARY DATA FROM ALBUQUERQUE
      AND OTHER STATIONS.  A FINAL VERSION WITH ADDITIONAL DATA IS
      ISSUED ABOUT 10 MINUTES AFTER THE HOUR.

NMZ501-503-504-510>518-131600-
NORTHWEST PLATEAU/NORTHCENTRAL MOUNTAINS

CITY           SKY/WX    TMP DP  RH WIND       PRES   REMARKS
FARMINGTON     CLEAR     31  25  78 E8        30.30S WCI  23
LOS ALAMOS     CLOUDY    40  20  45 CALM      30.34S
SANTA FE       CLOUDY    37  24  59 N12       30.31S WCI  29
TAOS           CLOUDY    30  25  80 N3        30.35R
ANGEL FIRE     FAIR      17  15  94 SE5       30.35F WCI   9

$$
NMZ402-403-502-505>509-131600-
WESTCENTRAL MOUNTAINS/SOUTHWEST MOUNTAINS

CITY           SKY/WX    TMP DP  RH WIND       PRES   REMARKS
GALLUP         CLEAR     24  20  84 CALM      30.34R
GRANTS         SUNNY     22  15  73 NW6       30.37R WCI  14
SILVER CITY      N/A     43  16  33 N9        30.31S

$$
NMZ407-409-411-412-131600-
SOUTHERN DESERTS

CITY           SKY/WX    TMP DP  RH WIND       PRES   REMARKS
LORDSBURG      FAIR      37  16  41 SE5       30.26S WCI  34
DEMING         MOSUNNY   38  14  37 CALM      30.27S
LAS CRUCES     MOSUNNY   41  17  37 W3        30.28S
HOLLOMAN AFB   MOSUNNY   36  11  36 NE3       30.27F
ALAMOGORDO     MOSUNNY   39  14  35 CALM      30.29S
T OR C         PTSUNNY   43  12  28 NW5       30.29S

$$
NMZ519>523-131600-
CENTRAL VALLEYS/CENTRAL HIGHLANDS

CITY           SKY/WX    TMP DP  RH WIND       PRES   REMARKS
ALBUQUERQUE    CLOUDY    34  20  56 CALM      30.32R
DOUBLE EAGLE   MOSUNNY   34  21  60 CALM      30.32R
MORIARTY ARPT  FAIR      25  21  83 CALM      30.34S
CLINES CORNERS CLOUDY    44  18  35 SW10      30.31R
BELEN          FAIR      34  17  49 CALM      30.32R
SOCORRO        FAIR      34  14  44 NW7       30.31S WCI  28

$$
NMZ524>526-539-540-131600-
SOUTHCENTRAL MOUNTAINS

CITY           SKY/WX    TMP DP  RH WIND       PRES   REMARKS
RUIDOSO          N/A     46  10  23 W5        30.36S

$$
NMZ527>531-131600-
NORTHEAST HIGHLANDS/NORTHEAST PLAINS

CITY           SKY/WX    TMP DP  RH WIND       PRES   REMARKS
LAS VEGAS      CLOUDY    44  19  36 S5        30.28S
RATON          CLOUDY    27  21  78 E6        30.24F WCI  20
CLAYTON        SUNNY     42  25  50 SW16G23   30.18F

$$
NMZ532>537-131600-
EASTCENTRAL PLAINS

CITY           SKY/WX    TMP DP  RH WIND       PRES   REMARKS
TUCUMCARI      SUNNY     45  29  53 W10       30.25S
CANNON AFB     CLOUDY    38  33  83 SW6       30.29F WCI  34
CLOVIS AIRPORT SUNNY     37  30  75 S8        30.31F WCI  31

$$
NMZ028-029-538-131600-
SOUTHEAST PLAINS

CITY           SKY/WX    TMP DP  RH WIND       PRES   REMARKS
ROSWELL        CLOUDY    39  25  57 CALM      30.29S
ARTESIA        CLOUDY    43  27  52 CALM      30.30S
CARLSBAD       CLOUDY    38  27  64 W3        30.29S
HOBBS          SUNNY     41  32  70 VRB5      30.32S


$$




USA.gov is the U.S. government's official web portal to all federal, state and local government web resources and services.